Regional Weather Roundup
Issued by NWS San Angelo, TX

Home | Current Version | Previous Version | Text Only | Print | Product List | Glossary On
Versions: 1 2 3 4 5 6 7 8 9 10 11 12 13 14 15 16 17 18 19 20 21 22 23 24 25 26 27 28 29 30 31 32 33 34 35 36 37 38 39 40 41 42 43 44 45 46 47 48 49 50
000
ASUS44 KSJT 010610
RWRSJT
WEST CENTRAL TEXAS REGIONAL WEATHER ROUNDUP
NATIONAL WEATHER SERVICE SAN ANGELO TX
100 AM CDT SAT AUG 01 2015

NOTE: "FAIR" INDICATES FEW OR NO CLOUDS BELOW 12,000 FEET WITH NO
SIGNIFICANT WEATHER AND/OR OBSTRUCTIONS TO VISIBILITY.

TXZ049-054-064>066-071>073-076>078-098-099-113-114-127-128-139-140-
154-155-168>170-010700
...LOCATIONS ACROSS WEST CENTRAL TEXAS...

CITY           SKY/WX    TMP DP  RH WIND       PRES   REMARKS
SAN ANGELO     CLOUDY    85  65  51 SE9       30.10R
ABILENE        PTCLDY    77  66  68 SE5       30.10S
DYESS AFB      MOCLDY    79  67  65 S3        30.08F
JUNCTION       MOCLDY    77  64  64 CALM      30.10F
SWEETWATER     CLEAR     77  66  67 E6        30.15F
BROWNWOOD      MOCLDY    73  66  78 CALM      30.08S
COLEMAN        CLEAR     76  67  73 CALM      30.10R
SONORA         CLEAR     81  64  57 VRB7      30.16S
OZONA          FAIR      81  61  50 SE8       30.15R
BRADY          CLEAR     79  66  65 CALM      30.10S
$$

TEXAS PANHANDLE/OKLAHOMA PANHANDLE

CITY           SKY/WX    TMP DP  RH WIND       PRES   REMARKS
AMARILLO       LGT RAIN  65  62  90 SW10      30.23F
BORGER         CLOUDY    74  65  73 S6        30.19R
CANADIAN       CLOUDY    73  71  95 CALM      30.15F
DALHART        CLOUDY    69  64  84 S8        30.23F
DUMAS          CLOUDY    69  64  85 CALM      30.22S
GUYMON         NOT AVBL
HEREFORD       LGT RAIN  68  66  95 MISG      30.24F
PAMPA          CLOUDY    73  66  78 S9        30.22R
PERRYTON       NOT AVBL
$$

SOUTHERN PANHANDLE/SOUTH PLAINS/ROLLING PLAINS

CITY           SKY/WX    TMP DP  RH WIND       PRES   REMARKS
LUBBOCK        CLOUDY    74  67  78 SE12      30.18S
SNYDER         CLEAR     76  66  71 E7        30.14F
CHILDRESS      MOCLDY    76  68  76 NW3       30.14R
SEMINOLE       CLEAR     77  63  61 E8        30.19R
$$

PERMIAN BASIN

CITY           SKY/WX    TMP DP  RH WIND       PRES   REMARKS
MIDLAND        PTCLDY    82  67  60 E16       30.13R
ODESSA         MOCLDY    83  62  49 SE10      30.14R
WINK           PTCLDY    86  58  38 SE9       30.09S
$$

FAR WEST/SOUTHWEST MOUNTAINS/TRANS PECOS

CITY           SKY/WX    TMP DP  RH WIND       PRES   REMARKS
ALPINE         CLEAR     75  58  54 SE6       30.28F
DRYDEN           N/A     86  65  49 SE7       30.08S
EL PASO        PTCLDY    84  50  30 E8        30.13S
FORT STOCKTON  MOCLDY    80  60  50 S15       30.12F
GUADALUPE PASS CLEAR     75  51  43 E10       30.30R
MARFA          CLEAR     66  55  68 NE7       30.26S
PECOS          PTCLDY    84  59  43 SE15G28   30.09R
$$

DALLAS/FORT WORTH METROPLEX

CITY           SKY/WX    TMP DP  RH WIND       PRES   REMARKS
DFW AIRPORT    MOCLDY    85  57  38 E7        30.03R
FTW MEACHAM    MOCLDY    79  71  76 CALM      30.04R
DAL-EXECUTIVE  MOCLDY    82  58  43 E3        30.03R
GRAND PRAIRIE  MOCLDY    84  59  42 CALM      30.05R
ADDISON        MOCLDY    86  57  37 E3        30.05S
MESQUITE       CLOUDY    81  58  46 E3        30.02S
LANCASTER      MOCLDY    79  58  47 CALM      30.03R
$$

NORTH CENTRAL TEXAS

CITY           SKY/WX    TMP DP  RH WIND       PRES   REMARKS
SHRMAN/DENISON MOCLDY    78  65  64 E5        30.06S
GAINESVILLE    PTCLDY    78  65  64 CALM      30.08S
BRIDGEPORT     NOT AVBL
DENTON         MOCLDY    78  71  79 CALM      30.04R
WAXAHACHIE     MOCLDY    79  62  55 CALM      30.04R
GRANBURY       CLOUDY    77  74  90 CALM      30.05F
$$

WESTERN NORTH TEXAS

CITY           SKY/WX    TMP DP  RH WIND       PRES   REMARKS
WICHITA FALLS  MOCLDY    74  71  91 N3        30.07R
VERNON         MOCLDY    74  69  82 N6        30.11R
BRECKENRIDGE   PTCLDY    76  69  79 SW3       30.07F
COMANCHE       PTCLDY    76  69  78 CALM      30.07F
$$

CENTRAL AND SOUTH CENTRAL TEXAS

CITY           SKY/WX    TMP DP  RH WIND       PRES   REMARKS
AUSTIN/BERGSTM PTCLDY    77  67  71 VRB3      30.00F
WACO           PTCLDY    82  59  45 E3        30.02R
HILLSBORO      PTCLDY    82  57  43 E6        30.02S
TEMPLE         CLEAR     81  61  50 E8        30.01F
KILLEEN-GRAY   CLEAR     84  65  51 E3        30.03S
FORT HOOD      CLEAR     83  64  52 E6        30.01F
GEORGETOWN     CLEAR     82  64  54 CALM      30.01F
LAGO VISTA     FAIR      85  58  40 E7        30.05F
SAN MARCOS     CLEAR     79  72  78 CALM      30.02S
NEW BRAUNFELS  CLEAR     78  73  84 CALM      30.00S
RANDOLPH AFB   CLEAR     79  73  83 CALM      30.00F
SAN ANTONIO    PTCLDY    80  72  76 CALM      30.01F
STINSON        PTCLDY    80  71  74 W5        29.99F
PLEASANTON     NOT AVBL
LA GRANGE      CLEAR     77  73  85 CALM      29.98F
GIDDINGS       CLEAR     76  65  67 CALM      30.04F
$$

EAST TEXAS

CITY           SKY/WX    TMP DP  RH WIND       PRES   REMARKS
PARIS          MOCLDY    75  61  60 E6        30.04S
CLARKSVILLE    NOT AVBL
TYLER          PTCLDY    79  62  56 NE3       30.02F
LONGVIEW       PTCLDY    75  64  68 CALM      30.01F
PALESTINE      MOCLDY    79  59  50 CALM      30.02F
NACOGDOCHES    CLEAR     70  64  83 CALM      30.01S
$$

TEXAS HILL COUNTRY AND EDWARDS PLATEAU

CITY           SKY/WX    TMP DP  RH WIND       PRES   REMARKS
LLANO          PTCLDY    79  70  73 N6        30.09R
HORSESHOE BAY  FAIR      80  69  67 CALM      30.04S
KERRVILLE      MOCLDY    74  72  93 NW5       30.08S
FREDERICKSBRG  MOCLDY    73  71  95 CALM      30.08R FOG
ROCKSPRINGS    PTCLDY    75  66  73 CALM      30.13F
HONDO          PTCLDY    75  71  87 W5        30.04F
UVALDE         PTCLDY    76  71  84 CALM      30.05F
DEL RIO        CLOUDY    84  68  58 SE9       30.04R
$$

SOUTHEAST TEXAS

CITY           SKY/WX    TMP DP  RH WIND       PRES   REMARKS
COLLEGE STN    CLEAR     80  62  54 E6        30.00F
CALDWELL       CLEAR     79  61  53 NE3       30.03F
CROCKETT       CLEAR     75  66  73 CALM      30.03F
BRENHAM        CLEAR     80  65  59 CALM      30.00F
HUNTSVILLE     CLEAR     76  63  64 CALM      30.00F
CONROE         CLEAR     72  66  81 CALM      30.00F
HOUSTON BUSH   PTCLDY    79  66  64 N3        29.98F
HOUSTON HOBBY  PTCLDY    83  74  74 CALM      29.97F
PERLAND        CLEAR     81  75  82 CALM      29.99F
WHARTON        PTCLDY    76  73  92 CALM      29.99S
$$

THE UPPER TEXAS COAST

CITY           SKY/WX    TMP DP  RH WIND       PRES   REMARKS
ORANGE         CLEAR     69  69 100 CALM      29.98F
PORT ARTHUR    CLEAR     79  67  66 NE6       29.96F
GALVESTON      CLEAR     85  77  77 CALM      29.98F
ANGLETON       CLEAR     78  76  93 CALM      29.97F
BAY CITY       CLEAR     78  77  95 CALM      29.98S
$$

TEXAS COASTAL BEND, RIO GRANDE PLAINS DEEP SOUTH TEXAS

CITY           SKY/WX    TMP DP  RH WIND       PRES   REMARKS
VICTORIA       PTCLDY    76  74  93 CALM      29.99S
BEEVILLE       FAIR      71  71 100 CALM      29.98F
ROCKPORT       PTCLDY    77  74  90 NW5       29.96F
PORT ARANSAS   PTCLDY    79  74  86 N5        29.96F
PORT LAVACA    MOCLDY    75  73  94 CALM      29.98S
CORPUS CHRISTI CLOUDY    77  74  90 NW3       29.97S
KINGSVILLE NAS MOCLDY    77  76  96 CALM      29.97S
COTULLA        MOCLDY    78  73  84 N5        29.99S
LAREDO         CLOUDY    79  74  84 E7        30.00S
BROWNSVILLE    CLOUDY    79  75  87 S3        29.97S
PORT ISABEL    CLOUDY    79  73  82 CALM      29.97R
HEBBRONVILLE     N/A     74  72  93 CALM      30.00F
MCALLEN        MOCLDY    84  73  69 S5        29.98S
WESLACO        MOCLDY    82  73  76 S5        29.97S
FALFURRIAS     PTCLDY    77  72  84 CALM      29.97S
EDINBURG       PTCLDY    80  71  74 CALM      29.97F
$$



USA.gov is the U.S. government's official web portal to all federal, state and local government web resources and services.